TimeCET,TemperatureF,Dew PointF,Humidity,Sea Level PressureIn,VisibilityMPH,Wind Direction,Wind SpeedMPH,Gust SpeedMPH,PrecipitationIn,Events,Conditions,WindDirDegrees,DateUTC
12:00 AM,33.8,30.2,87,29.95,6.2,Calm,Calm,-,N/A,,Unknown,0,2012-12-06 23:00:00
12:30 AM,33.8,32.0,93,29.95,6.2,Calm,Calm,-,N/A,,Scattered Clouds,0,2012-12-06 23:30:00
1:00 AM,33.8,32.0,93,29.95,6.2,Variable,1.2,-,N/A,,Unknown,0,2012-12-07 00:00:00
1:30 AM,33.8,32.0,93,29.95,6.2,NNE,2.3,-,N/A,,Mostly Cloudy,30,2012-12-07 00:30:00
2:00 AM,35.6,33.8,93,29.95,6.2,NNE,2.3,-,N/A,,Mostly Cloudy,20,2012-12-07 01:00:00
2:30 AM,33.8,32.0,93,29.95,6.2,Calm,Calm,-,N/A,,Partly Cloudy,0,2012-12-07 01:30:00
3:00 AM,33.8,30.2,87,29.95,6.2,SW,3.5,-,N/A,,Unknown,230,2012-12-07 02:00:00
3:30 AM,42.8,39.2,87,29.95,6.2,SW,6.9,-,N/A,,Partly Cloudy,230,2012-12-07 02:30:00
4:00 AM,42.8,39.2,87,29.92,6.2,SW,6.9,-,N/A,,Partly Cloudy,230,2012-12-07 03:00:00
4:30 AM,44.6,37.4,76,29.92,6.2,SW,5.8,-,N/A,,Partly Cloudy,230,2012-12-07 03:30:00
5:00 AM,44.6,37.4,76,29.92,6.2,SW,6.9,-,N/A,,Scattered Clouds,230,2012-12-07 04:00:00
5:30 AM,44.6,35.6,71,29.92,6.2,SW,6.9,-,N/A,,Unknown,230,2012-12-07 04:30:00
6:00 AM,44.6,35.6,71,29.95,6.2,SW,6.9,-,N/A,,Unknown,220,2012-12-07 05:00:00
6:30 AM,46.4,35.6,66,29.92,6.2,SW,5.8,-,N/A,,Partly Cloudy,230,2012-12-07 05:30:00
7:00 AM,48.2,35.6,62,29.92,6.2,West,5.8,-,N/A,,Mostly Cloudy,280,2012-12-07 06:00:00
7:30 AM,48.2,35.6,62,29.92,6.2,West,5.8,-,N/A,,Overcast,280,2012-12-07 06:30:00
8:00 AM,50.0,35.6,58,29.92,6.2,West,6.9,-,N/A,,Mostly Cloudy,280,2012-12-07 07:00:00
8:30 AM,50.0,37.4,62,29.92,6.2,WSW,3.5,-,N/A,,Mostly Cloudy,240,2012-12-07 07:30:00
9:00 AM,50.0,39.2,66,29.92,6.2,WSW,6.9,-,N/A,,Mostly Cloudy,250,2012-12-07 08:00:00
9:30 AM,51.8,41.0,67,29.92,6.2,West,11.5,-,N/A,,Partly Cloudy,260,2012-12-07 08:30:00
10:00 AM,55.4,41.0,58,29.92,6.2,West,16.1,29.9,N/A,,Scattered Clouds,270,2012-12-07 09:00:00
10:30 AM,55.4,42.8,63,29.92,6.2,West,15.0,-,N/A,,Mostly Cloudy,270,2012-12-07 09:30:00
11:00 AM,53.6,42.8,67,29.92,6.2,West,10.4,-,N/A,,Mostly Cloudy,260,2012-12-07 10:00:00
11:30 AM,53.6,42.8,67,29.89,6.2,West,9.2,-,N/A,,Mostly Cloudy,260,2012-12-07 10:30:00
12:00 PM,55.4,44.6,67,29.89,6.2,West,9.2,-,N/A,,Mostly Cloudy,260,2012-12-07 11:00:00
12:30 PM,57.2,44.6,63,29.86,6.2,WSW,16.1,-,N/A,,Overcast,240,2012-12-07 11:30:00
1:00 PM,55.4,44.6,67,29.86,6.2,SW,16.1,-,N/A,Rain,Light Rain,230,2012-12-07 12:00:00
1:30 PM,51.8,44.6,76,29.83,5.6,West,13.8,26.5,N/A,Rain,Light Rain,270,2012-12-07 12:30:00
2:00 PM,53.6,44.6,72,29.83,6.2,West,13.8,-,N/A,,Scattered Clouds,270,2012-12-07 13:00:00
2:30 PM,53.6,44.6,72,29.80,6.2,West,12.7,-,N/A,,Mostly Cloudy,260,2012-12-07 13:30:00
3:00 PM,55.4,44.6,67,29.80,6.2,West,13.8,-,N/A,,Mostly Cloudy,270,2012-12-07 14:00:00
3:30 PM,55.4,44.6,67,29.80,6.2,West,13.8,-,N/A,,Mostly Cloudy,270,2012-12-07 14:30:00
4:00 PM,53.6,44.6,72,29.77,6.2,West,9.2,-,N/A,,Overcast,260,2012-12-07 15:00:00
4:30 PM,51.8,46.4,82,29.77,6.2,West,11.5,-,N/A,Rain,Light Rain,260,2012-12-07 15:30:00
5:00 PM,51.8,46.4,82,29.74,6.2,WSW,9.2,-,N/A,,Overcast,250,2012-12-07 16:00:00
5:30 PM,51.8,46.4,82,29.74,6.2,WSW,12.7,-,N/A,,Mostly Cloudy,250,2012-12-07 16:30:00
6:00 PM,53.6,44.6,72,29.71,6.2,WSW,15.0,-,N/A,,Mostly Cloudy,250,2012-12-07 17:00:00
6:30 PM,55.4,44.6,67,29.71,6.2,WSW,18.4,-,N/A,,Overcast,250,2012-12-07 17:30:00
7:00 PM,55.4,44.6,67,29.71,6.2,WSW,16.1,27.6,N/A,,Mostly Cloudy,250,2012-12-07 18:00:00
7:30 PM,55.4,44.6,67,29.68,6.2,WSW,16.1,-,N/A,,Overcast,250,2012-12-07 18:30:00
8:00 PM,57.2,44.6,63,29.68,6.2,WSW,18.4,-,N/A,,Mostly Cloudy,250,2012-12-07 19:00:00
8:30 PM,55.4,46.4,72,29.68,6.2,WSW,19.6,-,N/A,Rain,Light Rain,250,2012-12-07 19:30:00
9:00 PM,53.6,50.0,88,29.68,5.0,WSW,15.0,-,N/A,Rain,Rain,250,2012-12-07 20:00:00
9:30 PM,51.8,48.2,88,29.65,1.4,West,19.6,35.7,N/A,Rain,Heavy Rain,280,2012-12-07 20:30:00
10:00 PM,51.8,46.4,82,29.65,5.6,West,21.9,34.5,N/A,Rain,Rain,280,2012-12-07 21:00:00
10:30 PM,50.0,42.8,76,29.65,2.8,WNW,17.3,29.9,N/A,Rain,Rain,290,2012-12-07 21:30:00
11:00 PM,51.8,44.6,76,29.65,6.2,West,15.0,-,N/A,,Mostly Cloudy,270,2012-12-07 22:00:00
11:30 PM,53.6,44.6,72,29.65,6.2,West,20.7,-,N/A,,Mostly Cloudy,270,2012-12-07 22:30:00